Weather History for Branson, MO

Change the Weather History Date:

Monday, December 10, 2012

  Actual Average (KHRO) Record (KHRO)
Temperature  
Mean Temperature 28 °F 39 °F  
Max Temperature 32 °F 49 °F 73 °F (1933)
Min Temperature 23 °F 29 °F 1 °F (1919)
Degree Days  
Heating Degree Days 38 26  
Month to date heating degree days 245  
Since 1 July heating degree days 1009  
Cooling Degree Days 0 0  
Month to date cooling degree days 0  
Year to date cooling degree days 1416  
Moisture  
Dew Point 18 °F    
Average Humidity 72    
Maximum Humidity 86    
Minimum Humidity 60    
Precipitation  
Precipitation 0.00 in 0.10 in 4.58 in (1971)
Month to date precipitation 1.17  
Year to date precipitation 42.11  
Snow  
Snow 0.00 in 0.00 in 0.50 in (2003)
Month to date snowfall 0.0  
Since 1 July snowfall 0.5  
Snow Depth -    
Sea Level Pressure  
Sea Level Pressure 30.01 in    
Wind  
Wind Speed 9 mph (NW)    
Max Wind Speed 15 mph    
Max Gust Speed 23 mph    
Visibility 10 miles    
Events      
T = Trace of Precipitation, MM = Missing Value Source: NWS Daily Summary

Daily Weather History Graph

Daily Weather History Graph

Search for Another Location

Airport:

Trip Planner

Search our weather history database for the weather conditions in past years. The results will help you decide how hot, cold, wet, or windy it might be!

Date:

Astronomy

Dec. 10, 2012 Rise Set
Actual Time 7:14 AM CST 4:57 PM CST
Civil Twilight 6:45 AM CST 5:26 PM CST
Nautical Twilight 6:13 AM CST 5:58 PM CST
Astronomical Twilight 5:41 AM CST 6:29 PM CST
Moon 4:01 AM CST (12/10) 2:44 PM CST (12/10)
Length of Visible Light 10h 40m
Length of Day
9h 43m
Waning Crescent, 10% of the Moon is Illuminated
Dec 10
Waning Crescent
Dec 13
New
Dec 19
First Quarter
Dec 28
Full
Jan 4
Last Quarter

Hourly Weather History & Observations

Time (CST) Temp. Windchill Dew Point Humidity Pressure Visibility Wind Dir Wind Speed Gust Speed Precip Events Conditions
12:15 AM 30.2 °F 21.3 °F 23.0 °F 75% 29.98 in 10.0 mi NW 10.4 mph 16.1 mph N/A   Clear
12:35 AM 30.2 °F 20.2 °F 21.2 °F 69% 29.98 in 10.0 mi NW 12.7 mph - N/A   Clear
12:55 AM 28.4 °F 19.1 °F 21.2 °F 74% 29.97 in 10.0 mi NW 10.4 mph - N/A   Clear
1:15 AM 28.4 °F 17.5 °F 17.6 °F 64% 29.97 in 10.0 mi NW 13.8 mph 19.6 mph N/A   Clear
1:55 AM 26.6 °F 17.5 °F 17.6 °F 69% 29.97 in 10.0 mi NW 9.2 mph - N/A   Clear
2:15 AM 26.6 °F 16.2 °F 17.6 °F 69% 29.98 in 10.0 mi NW 11.5 mph 17.3 mph N/A   Clear
2:35 AM 26.6 °F 17.5 °F 17.6 °F 69% 29.97 in 10.0 mi NW 9.2 mph - N/A   Partly Cloudy
2:55 AM 26.6 °F 17.5 °F 17.6 °F 69% 29.96 in 10.0 mi NW 9.2 mph - N/A   Clear
3:15 AM 26.6 °F 16.2 °F 17.6 °F 69% 29.96 in 10.0 mi NW 11.5 mph - N/A   Clear
3:55 AM 24.8 °F 13.4 °F 17.6 °F 74% 29.96 in 10.0 mi NW 12.7 mph 17.3 mph N/A   Scattered Clouds
4:15 AM 24.8 °F 12.4 °F 15.8 °F 69% 29.97 in 10.0 mi NW 15.0 mph 23.0 mph N/A   Scattered Clouds
4:35 AM 24.8 °F 14.0 °F 17.6 °F 74% 29.97 in 10.0 mi NW 11.5 mph - N/A   Mostly Cloudy
4:55 AM 24.8 °F 14.0 °F 15.8 °F 69% 29.98 in 10.0 mi NW 11.5 mph 17.3 mph N/A   Overcast
5:15 AM 24.8 °F 13.4 °F 15.8 °F 69% 29.97 in 10.0 mi NW 12.7 mph 18.4 mph N/A   Overcast
5:35 AM 24.8 °F 14.6 °F 15.8 °F 69% 29.98 in 10.0 mi NW 10.4 mph 19.6 mph N/A   Overcast
6:53 AM 23.0 °F 10.6 °F 15.8 °F 74% 30.01 in 10.0 mi WNW 13.8 mph 20.7 mph N/A   Overcast
7:53 AM 23.0 °F 11.1 °F 15.8 °F 74% 30.03 in 10.0 mi NW 12.7 mph 21.9 mph N/A   Overcast
8:55 AM 24.8 °F 13.4 °F 15.8 °F 69% 30.04 in 10.0 mi NW 12.7 mph 20.7 mph N/A   Overcast
9:50 AM 24.8 °F 14.0 °F 15.8 °F 69% 30.05 in 10.0 mi NW 11.5 mph 19.6 mph N/A   Overcast
10:52 AM 26.6 °F 16.2 °F 17.6 °F 69% 30.03 in 10.0 mi WNW 11.5 mph 18.4 mph N/A   Overcast
11:53 AM 28.4 °F 18.5 °F 17.6 °F 64% 30.02 in 10.0 mi NW 11.5 mph 20.7 mph N/A   Mostly Cloudy
12:52 PM 28.4 °F 18.0 °F 17.6 °F 64% 30.02 in 10.0 mi NW 12.7 mph 19.6 mph N/A   Overcast
1:45 PM 28.4 °F 20.4 °F 17.6 °F 64% 30.00 in 10.0 mi WNW 8.1 mph - N/A   Overcast
2:47 PM 30.2 °F 23.4 °F 17.6 °F 60% 30.00 in 10.0 mi North 6.9 mph - N/A   Scattered Clouds
3:48 PM 32.0 °F 23.0 °F 19.4 °F 60% 30.00 in 10.0 mi NNW 11.5 mph - N/A   Partly Cloudy
4:45 PM 30.2 °F 23.4 °F 19.4 °F 64% 30.01 in 10.0 mi NW 6.9 mph - N/A   Partly Cloudy
5:45 PM 28.4 °F 21.2 °F 19.4 °F 69% 30.02 in 10.0 mi NW 6.9 mph - N/A   Partly Cloudy
6:45 PM 28.4 °F 19.7 °F 19.4 °F 69% 30.04 in 10.0 mi NW 9.2 mph - N/A   Clear
7:45 PM 26.6 °F - 19.4 °F 74% 30.05 in 10.0 mi Calm Calm - N/A   Clear
8:15 PM 24.8 °F - 19.4 °F 80% 30.05 in 10.0 mi Calm Calm - N/A   Clear
8:35 PM 26.6 °F - 19.4 °F 74% 30.05 in 10.0 mi Calm Calm - N/A   Clear
8:50 PM 24.8 °F - 19.4 °F 80% 30.05 in 10.0 mi Calm Calm - N/A   Clear
8:55 PM 24.8 °F - 19.4 °F 80% 30.05 in 10.0 mi Calm Calm - N/A   Clear
9:15 PM 24.8 °F - 19.4 °F 80% 30.05 in 10.0 mi Calm Calm - N/A   Clear
9:55 PM 23.0 °F - 19.4 °F 86% 30.06 in 10.0 mi Calm Calm - N/A   Clear
10:15 PM 23.0 °F - 19.4 °F 86% 30.07 in 10.0 mi Calm Calm - N/A   Clear
10:35 PM 24.8 °F - 19.4 °F 80% 30.07 in 10.0 mi Calm Calm - N/A   Clear
10:55 PM 23.0 °F - 19.4 °F 86% 30.07 in 10.0 mi Calm Calm - N/A   Clear
11:15 PM 23.0 °F - 19.4 °F 86% 30.08 in 10.0 mi Calm Calm - N/A   Clear
11:55 PM 23.0 °F - 19.4 °F 86% 30.08 in 10.0 mi Calm Calm - N/A   Clear